This is the latest recevied weather packets stored in our database for station/object IT9CNT. If no packets are shown the sender has not sent any weather packets the latest 10 day(s).
| Time | Temp. | Humidity | Pressure | Rain* | Wind** | Luminosity | Snow |
|---|---|---|---|---|---|---|---|
| 1787584444 | 31.67° C | 62% | 1013.4 hPa | 0 mm | - | - | - |
| 1787584383 | 31.67° C | 62% | 1013.7 hPa | 0 mm | - | - | - |
| 1787584323 | 31.67° C | 62% | 1013.6 hPa | 0 mm | - | - | - |
| 1787584264 | 31.67° C | 63% | 1013.5 hPa | 0 mm | - | - | - |
| 1787584143 | 31.67° C | 63% | 1013.3 hPa | 0 mm | - | - | - |
| 1787584084 | 31.67° C | 60% | 1013.3 hPa | 0 mm | - | - | - |
| 1787584024 | 31.67° C | 60% | 1013.6 hPa | 0 mm | - | - | - |
| 1787583964 | 31.67° C | 60% | 1013.5 hPa | 0 mm | - | - | - |
| 1787583903 | 31.67° C | 60% | 1013.8 hPa | 0 mm | - | - | - |
| 1787583844 | 31.67° C | 60% | 1013.5 hPa | 0 mm | - | - | - |
| 1787583783 | 32.22° C | 62% | 1013.7 hPa | 0 mm | - | - | - |
| 1787583723 | 32.22° C | 62% | 1013.3 hPa | 0 mm | - | - | - |
| 1787583663 | 32.22° C | 62% | 1013.4 hPa | 0 mm | - | - | - |
| 1787583604 | 32.22° C | 62% | 1013.5 hPa | 0 mm | - | - | - |
| 1787583543 | 32.22° C | 60% | 1013.6 hPa | 0 mm | - | - | - |
| 1787583484 | 32.22° C | 60% | 1013.8 hPa | 0 mm | - | - | - |
| 1787583423 | 31.67° C | 60% | 1013.6 hPa | 0 mm | - | - | - |
| 1787583363 | 31.67° C | 60% | 1013.4 hPa | 0 mm | - | - | - |
| 1787583303 | 31.67° C | 62% | 1013.7 hPa | 0 mm | - | - | - |
| 1787583243 | 31.67° C | 62% | 1013.7 hPa | 0 mm | - | - | - |
| 1787583183 | 32.22° C | 61% | 1013.7 hPa | 0 mm | - | - | - |
| 1787583123 | 31.67° C | 61% | 1013.7 hPa | 0 mm | - | - | - |
| 1787583063 | 31.67° C | 61% | 1013.8 hPa | 0 mm | - | - | - |
| 1787583003 | 31.67° C | 61% | 1013.8 hPa | 0 mm | - | - | - |
| 1787582943 | 31.67° C | 61% | 1013.8 hPa | 0 mm | - | - | - |
* Rain latest hour (hover to see other rain measurements)
** Current wind speed in m/s (hover to see current wind gust speed)